Eldorado — WDE8374 — position and weather

sailwx.info

Track history (hours):
 
Tides and Currents Weather Stations Pressure Air Temp Water Temp Dewpoint Dewpoint Depression Visibility Wind Speed Wind Dir Waves Ship Positions

Eldorado

Owner: FUKUTO / REDLEW CHARTERS, INC., CYPRESS, CA. More information available from US FCC via Universal Licensing System and Coast Guard Vessel Documentation Center.

Last reported at 2017-Nov-25 11:30 UTC. Time now 2017-Nov-25 11:48 UTC.
Position N 33°13' W 119°24'.

Length 28 m.

Type: Passenger vessel. MMSI: 367404740.

Date/timePositionNaut miles runAvg speedWind from/ knotsBaromVisibWave heightAir tempDewpointWater temp
2017-Nov-25 11:30N 33°13' W 119°24'4 8.1
2017-Nov-25 11:01N 33°15' W 119°20'510.1
2017-Nov-25 10:30N 33°18' W 119°14'610.5
2017-Nov-25 09:56N 33°20' W 119°08'410.3
2017-Nov-25 09:30N 33°22' W 119°03'510.0
2017-Nov-25 08:59N 33°25' W 118°57'5 9.8
2017-Nov-25 08:30N 33°27' W 118°53'5 9.7
2017-Nov-25 08:00N 33°29' W 118°47'5 9.8
2017-Nov-25 07:31N 33°31' W 118°42'12 9.8
2017-Nov-25 06:20N 33°37' W 118°30'410.0
2017-Nov-25 05:58N 33°38' W 118°26'710.1
2017-Nov-25 05:18N 33°41' W 118°19'4 9.2
2017-Nov-25 04:49N 33°43' W 118°14'2 7.4
2017-Nov-25 04:30N 33°46' W 118°13'0 0.0
2017-Nov-23 11:09N 33°46' W 118°13'10 9.4
2017-Nov-23 10:06N 33°36' W 118°14'111.1
2017-Nov-23 10:00N 33°35' W 118°14'2011.0
2017-Nov-23 08:12N 33°15' W 118°13'210.8
2017-Nov-23 08:00N 33°13' W 118°13'611.0
2017-Nov-23 07:29N 33°07' W 118°13'1011.0
2017-Nov-23 06:33N 32°57' W 118°13'110.9
2017-Nov-23 06:30N 32°57' W 118°13'1210.9
2017-Nov-23 05:24N 32°45' W 118°14'410.8
2017-Nov-23 05:00N 32°40' W 118°14'510.9
2017-Nov-23 04:31N 32°35' W 118°14'510.9
2017-Nov-23 04:01N 32°30' W 118°14'510.8
2017-Nov-23 03:30N 32°24' W 118°14'  
2017-Nov-20 00:30N 33°01' W 118°15'610.8
2017-Nov-19 23:59N 32°55' W 118°15'510.8
2017-Nov-19 23:29N 32°50' W 118°15'710.4
2017-Nov-19 22:48N 32°43' W 118°15'610.2
2017-Nov-19 22:12N 32°37' W 118°15'210.2
2017-Nov-19 22:00N 32°35' W 118°15'510.1
2017-Nov-19 21:30N 32°30' W 118°14'0 0.6
2017-Nov-19 20:56N 32°30' W 118°14'4 8.1
2017-Nov-19 20:30N 32°27' W 118°16'0 0.8
2017-Nov-19 20:00N 32°27' W 118°17'0 0.7
2017-Nov-19 19:30N 32°28' W 118°16'3 3.6
2017-Nov-19 18:43N 32°29' W 118°20'3 8.6
2017-Nov-19 18:20N 32°32' W 118°19'1 2.3
2017-Nov-19 18:00N 32°32' W 118°18'4 3.4
2017-Nov-19 16:57N 32°28' W 118°18'4 2.8
2017-Nov-19 15:39N 32°32' W 118°17'0 0.0
2017-Nov-19 15:30N 32°32' W 118°17'0 0.6
2017-Nov-19 14:54N 32°32' W 118°17'1 1.0
2017-Nov-19 13:42N 32°33' W 118°16'0 0.6
2017-Nov-19 13:26N 32°33' W 118°16'0 0.5
2017-Nov-19 12:57N 32°33' W 118°16'10 8.2
2017-Nov-19 11:43N 32°43' W 118°15'210.4
2017-Nov-19 11:30N 32°45' W 118°15'3210.4
2017-Nov-19 08:28N 33°17' W 118°12'29 8.0
2017-Nov-19 04:54N 33°45' W 118°13'20 4.5
2017-Nov-19 00:28N 33°35' W 118°34'  
Track history (hours):
 
Tides and Currents Weather Stations Pressure Air Temp Water Temp Dewpoint Dewpoint Depression Visibility Wind Speed Wind Dir Waves Ship Positions

Eldorado

Owner: FUKUTO / REDLEW CHARTERS, INC., CYPRESS, CA. More information available from US FCC via Universal Licensing System and Coast Guard Vessel Documentation Center.

Last reported at 2017-Nov-25 11:30 UTC. Time now 2017-Nov-25 11:48 UTC.
Position N 33°13' W 119°24'.

Length 28 m.

Type: Passenger vessel. MMSI: 367404740.

Date/timePositionNaut miles runAvg speedWind from/ knotsBaromVisibWave heightAir tempDewpointWater temp
2017-Nov-25 11:30N 33°13' W 119°24'4 8.1
2017-Nov-25 11:01N 33°15' W 119°20'510.1
2017-Nov-25 10:30N 33°18' W 119°14'610.5
2017-Nov-25 09:56N 33°20' W 119°08'410.3
2017-Nov-25 09:30N 33°22' W 119°03'510.0
2017-Nov-25 08:59N 33°25' W 118°57'5 9.8
2017-Nov-25 08:30N 33°27' W 118°53'5 9.7
2017-Nov-25 08:00N 33°29' W 118°47'5 9.8
2017-Nov-25 07:31N 33°31' W 118°42'12 9.8
2017-Nov-25 06:20N 33°37' W 118°30'410.0
2017-Nov-25 05:58N 33°38' W 118°26'710.1
2017-Nov-25 05:18N 33°41' W 118°19'4 9.2
2017-Nov-25 04:49N 33°43' W 118°14'2 7.4
2017-Nov-25 04:30N 33°46' W 118°13'0 0.0
2017-Nov-23 11:09N 33°46' W 118°13'10 9.4
2017-Nov-23 10:06N 33°36' W 118°14'111.1
2017-Nov-23 10:00N 33°35' W 118°14'2011.0
2017-Nov-23 08:12N 33°15' W 118°13'210.8
2017-Nov-23 08:00N 33°13' W 118°13'611.0
2017-Nov-23 07:29N 33°07' W 118°13'1011.0
2017-Nov-23 06:33N 32°57' W 118°13'110.9
2017-Nov-23 06:30N 32°57' W 118°13'1210.9
2017-Nov-23 05:24N 32°45' W 118°14'410.8
2017-Nov-23 05:00N 32°40' W 118°14'510.9
2017-Nov-23 04:31N 32°35' W 118°14'510.9
2017-Nov-23 04:01N 32°30' W 118°14'510.8
2017-Nov-23 03:30N 32°24' W 118°14'  
2017-Nov-20 00:30N 33°01' W 118°15'610.8
2017-Nov-19 23:59N 32°55' W 118°15'510.8
2017-Nov-19 23:29N 32°50' W 118°15'710.4
2017-Nov-19 22:48N 32°43' W 118°15'610.2
2017-Nov-19 22:12N 32°37' W 118°15'210.2
2017-Nov-19 22:00N 32°35' W 118°15'510.1
2017-Nov-19 21:30N 32°30' W 118°14'0 0.6
2017-Nov-19 20:56N 32°30' W 118°14'4 8.1
2017-Nov-19 20:30N 32°27' W 118°16'0 0.8
2017-Nov-19 20:00N 32°27' W 118°17'0 0.7
2017-Nov-19 19:30N 32°28' W 118°16'3 3.6
2017-Nov-19 18:43N 32°29' W 118°20'3 8.6
2017-Nov-19 18:20N 32°32' W 118°19'1 2.3
2017-Nov-19 18:00N 32°32' W 118°18'4 3.4
2017-Nov-19 16:57N 32°28' W 118°18'4 2.8
2017-Nov-19 15:39N 32°32' W 118°17'0 0.0
2017-Nov-19 15:30N 32°32' W 118°17'0 0.6
2017-Nov-19 14:54N 32°32' W 118°17'1 1.0
2017-Nov-19 13:42N 32°33' W 118°16'0 0.6
2017-Nov-19 13:26N 32°33' W 118°16'0 0.5
2017-Nov-19 12:57N 32°33' W 118°16'10 8.2
2017-Nov-19 11:43N 32°43' W 118°15'210.4
2017-Nov-19 11:30N 32°45' W 118°15'3210.4
2017-Nov-19 08:28N 33°17' W 118°12'29 8.0
2017-Nov-19 04:54N 33°45' W 118°13'20 4.5
2017-Nov-19 00:28N 33°35' W 118°34'  

Dump ship's entire track history